Weather History for Vancouver, WA

Change the Weather History Date:

Tuesday, April 29, 2014

  Actual Average Record
Temperature  
Mean Temperature 61 °F 54 °F  
Max Temperature 77 °F 64 °F 87 °F (1957)
Min Temperature 44 °F 44 °F 32 °F (1907)
Degree Days  
Heating Degree Days 4    
Month to date heating degree days 364  
Since 1 July heating degree days 4346  
Cooling Degree Days 0    
Month to date cooling degree days 0  
Year to date cooling degree days 0  
Growing Degree Days 10 (Base 50)    
Moisture  
Dew Point 39 °F    
Average Humidity 54    
Maximum Humidity 86    
Minimum Humidity 21    
Precipitation  
Precipitation 0.00 in 0.09 in 0.80 in (1961)
Month to date precipitation 3.14 2.93  
Year to date precipitation 16.55 16.03  
Sea Level Pressure  
Sea Level Pressure 30.39 in    
Wind  
Wind Speed 6 mph (ESE)    
Max Wind Speed 18 mph    
Max Gust Speed 27 mph    
Visibility 10 miles    
Events      
T = Trace of Precipitation, MM = Missing Value Source: NWS Daily Summary

Daily Weather History Graph

Daily Weather History Graph

Search for Another Location

Airport:

Trip Planner

Search our weather history database for the weather conditions in past years. The results will help you decide how hot, cold, wet, or windy it might be!

Date:

Astronomy

Apr. 29, 2014 Rise Set
Actual Time 6:01 AM PDT 8:15 PM PDT
Civil Twilight 5:28 AM PDT 8:48 PM PDT
Nautical Twilight 4:48 AM PDT 9:28 PM PDT
Astronomical Twilight 4:03 AM PDT 10:14 PM PDT
Moon 6:23 AM PDT (4/29) 9:02 PM PDT (4/29)
Length of Visible Light 15h 19m
Length of Day
14h 13m
New Moon, 0% of the Moon is Illuminated
Apr 29
New Moon
May 6
First Quarter
May 14
Full
May 21
Last Quarter
May 28
New

Hourly Weather History & Observations

Time (PDT) Temp. Dew Point Humidity Pressure Visibility Wind Dir Wind Speed Gust Speed Precip Events Conditions
12:53 AM 54.0 °F 43.0 °F 66% 30.37 in 10.0 mi Variable 3.5 mph - N/A   Overcast
1:53 AM 53.1 °F 44.1 °F 71% 30.38 in 10.0 mi SE 3.5 mph - N/A   Overcast
2:53 AM 51.1 °F 45.0 °F 80% 30.40 in 10.0 mi Calm Calm - N/A   Overcast
3:53 AM 48.9 °F 44.1 °F 83% 30.41 in 10.0 mi Calm Calm - N/A   Overcast
4:53 AM 48.9 °F 44.1 °F 83% 30.43 in 10.0 mi Calm Calm - N/A   Overcast
5:53 AM 46.9 °F 43.0 °F 86% 30.43 in 10.0 mi Calm Calm - N/A   Partly Cloudy
6:53 AM 46.0 °F 43.0 °F 89% 30.45 in 10.0 mi Calm Calm - N/A   Clear
7:53 AM 52.0 °F 45.0 °F 77% 30.46 in 10.0 mi Calm Calm - N/A   Clear
8:53 AM 55.0 °F 44.1 °F 67% 30.47 in 10.0 mi Calm Calm - N/A   Clear
9:53 AM 57.0 °F 44.1 °F 62% 30.46 in 10.0 mi WSW 4.6 mph - N/A   Clear
10:53 AM 61.0 °F 46.9 °F 60% 30.45 in 10.0 mi West 5.8 mph - N/A   Clear
11:53 AM 64.9 °F 44.1 °F 47% 30.43 in 10.0 mi West 3.5 mph - N/A   Clear
12:53 PM 72.0 °F 36.0 °F 27% 30.41 in 10.0 mi East 10.4 mph - N/A   Clear
3:53 PM 75.9 °F 36.0 °F 23% 30.36 in 10.0 mi East 11.5 mph - N/A   Clear
4:53 PM 75.9 °F 36.0 °F 23% 30.35 in 10.0 mi East 10.4 mph - N/A   Clear
5:53 PM 75.0 °F 34.0 °F 22% 30.33 in 10.0 mi East 12.7 mph 21.9 mph N/A   Clear
6:53 PM 73.9 °F 33.1 °F 22% 30.32 in 10.0 mi East 17.3 mph 24.2 mph N/A   Clear
7:53 PM 72.0 °F 30.9 °F 22% 30.32 in 10.0 mi East 9.2 mph - N/A   Clear
8:53 PM 70.0 °F 28.9 °F 22% 30.32 in 10.0 mi East 9.2 mph 18.4 mph N/A   Clear
9:53 PM 70.0 °F 28.0 °F 21% 30.33 in 10.0 mi East 9.2 mph - N/A   Clear
10:53 PM 68.0 °F 28.0 °F 22% 30.35 in 10.0 mi East 5.8 mph - N/A   Clear
11:53 PM 66.0 °F 28.0 °F 24% 30.35 in 10.0 mi Variable 5.8 mph - N/A   Clear